Weather History for KVAD - October, 2011

Change the Weather History Date:

Thursday, October 27, 2011

  Actual Average Record
Temperature  
Mean Temperature 70 °F -  
Max Temperature 79 °F 75 °F 89 °F (2010)
Min Temperature 62 °F 55 °F 39 °F (2005)
Cooling Degree Days 5    
Growing Degree Days 20 (Base 50)    
Moisture  
Dew Point 61 °F    
Average Humidity 77    
Maximum Humidity 94    
Minimum Humidity 52    
Precipitation  
Precipitation 0.00 in - - ()
Sea Level Pressure  
Sea Level Pressure 29.94 in    
Wind  
Wind Speed 1 mph (West)    
Max Wind Speed 6 mph    
Max Gust Speed -    
Visibility 10 miles    
Events      
Averages and records for this station are not official NWS values.
T = Trace of Precipitation, MM = Missing Value Source: NWS Daily Summary

Daily Weather History Graph

Daily Weather History Graph

Search for Another Location

Airport or City:

Trip Planner

Search our weather history database for the weather conditions in past years. The results will help you decide how hot, cold, wet, or windy it might be!

Date:

Astronomy

Oct. 27, 2011 Rise Set
Actual Time 7:43 AM EDT 6:48 PM EDT
Civil Twilight 7:19 AM EDT 7:13 PM EDT
Nautical Twilight 6:50 AM EDT 7:42 PM EDT
Astronomical Twilight 6:22 AM EDT 8:10 PM EDT
Moon 8:37 AM EDT (10/27) 7:26 PM EDT (10/27)
Length of Visible Light 11h 54m
Length of Day
11h 05m
New Moon, 1% of the Moon is Illuminated
Oct 27
New Moon
Nov 2
First Quarter
Nov 10
Full
Nov 18
Last Quarter
Nov 25
New

Hourly Weather History & Observations

Time (EDT) Temp. Dew Point Humidity Pressure Visibility Wind Dir Wind Speed Gust Speed Precip Events Conditions
12:55 AM 67.1 °F 61.5 °F 82% 30.00 in 10.0 mi Calm Calm - N/A   Overcast
1:55 AM 67.1 °F 61.2 °F 81% 29.99 in 10.0 mi Calm Calm - N/A   Overcast
2:55 AM 66.6 °F 61.3 °F 83% 29.99 in 10.0 mi Calm Calm - N/A   Overcast
3:55 AM 65.7 °F 61.7 °F 87% 29.97 in 10.0 mi Calm Calm - N/A   Overcast
4:55 AM 64.9 °F 62.1 °F 90% 29.96 in 10.0 mi Calm Calm - N/A   Overcast
5:55 AM 64.6 °F 61.9 °F 91% 29.96 in 10.0 mi Calm Calm - N/A   Overcast
6:55 AM 64.2 °F 62.2 °F 93% 29.96 in 10.0 mi Calm Calm - N/A   Overcast
7:55 AM 63.9 °F 62.2 °F 94% 29.96 in 10.0 mi Calm Calm - N/A   Overcast
8:55 AM 65.3 °F 62.4 °F 90% 29.97 in 10.0 mi Calm Calm - N/A   Overcast
9:55 AM 67.8 °F 62.2 °F 82% 29.98 in 10.0 mi Calm Calm - N/A   Overcast
10:55 AM 72.0 °F 62.1 °F 71% 29.98 in 10.0 mi Calm Calm - N/A   Overcast
11:55 AM 76.1 °F 62.8 °F 63% 29.96 in 10.0 mi Calm Calm - N/A   Mostly Cloudy
12:55 PM 78.6 °F 61.9 °F 56% 29.94 in 10.0 mi West 3.5 mph - N/A   Scattered Clouds
1:55 PM 77.5 °F 59.2 °F 53% 29.91 in 10.0 mi West 3.5 mph - N/A   Scattered Clouds
2:55 PM 77.2 °F 59.7 °F 55% 29.90 in 10.0 mi West 4.6 mph - N/A   Mostly Cloudy
3:55 PM 78.3 °F 59.5 °F 52% 29.89 in 10.0 mi West 4.6 mph - N/A   Mostly Cloudy
4:55 PM 76.8 °F 59.2 °F 54% 29.89 in 10.0 mi NW 5.8 mph - N/A   Scattered Clouds
5:55 PM 77.5 °F 59.2 °F 53% 29.89 in 10.0 mi West 5.8 mph - N/A   Overcast
6:55 PM 70.7 °F 60.8 °F 71% 29.90 in 10.0 mi Calm Calm - N/A   Mostly Cloudy
7:55 PM 65.8 °F 60.8 °F 84% 29.92 in 10.0 mi Calm Calm - N/A   Scattered Clouds
8:55 PM 64.0 °F 59.5 °F 85% 29.93 in 10.0 mi Calm Calm - N/A   Clear
9:55 PM 62.1 °F 59.7 °F 92% 29.94 in 10.0 mi Calm Calm - N/A   Clear
10:55 PM 62.1 °F 59.2 °F 90% 29.94 in 10.0 mi Calm Calm - N/A   Clear
11:55 PM 63.3 °F 59.4 °F 87% 29.94 in 10.0 mi South 3.5 mph - N/A   Mostly Cloudy